When you browse on this site, cookies collect data to enhance your experience and personalize the content and advertising you see.
Visit our Privacy Policy to learn more. By continuing to use the site, you agree to this use of cookies and data.
  • In Hungary
  • List of Countries
  • For 7 days
  • Water Temperature
  • Satellite Maps
  • Weather Map
  • News
  • Weather Widgets
  • user-avatar
    Login

    Hourly Weather Carquefou

    Today, 25 March, Monday

    Time Temperature Precipitation Wind Pressure Humidity
    00:00 +2°C° 0 mm 3 mps 771 mmHg 93%
    01:00 +2°C° 0 mm 3 mps 771 mmHg 94%
    02:00 +2°C° 0 mm 3 mps 771 mmHg 94%
    03:00 +3°C° 0 mm 2 mps 771 mmHg 94%
    04:00 +2°C° 0 mm 3 mps 771 mmHg 94%
    05:00 +2°C° 0 mm 3 mps 771 mmHg 95%
    06:00 +2°C° 0 mm 3 mps 771 mmHg 95%
    07:00 +4°C° 0 mm 4 mps 771 mmHg 89%
    08:00 +6°C° 0 mm 4 mps 771 mmHg 83%
    09:00 +8°C° 0 mm 5 mps 771 mmHg 77%
    10:00 +9°C° 0 mm 5 mps 771 mmHg 74%
    11:00 +10°C° 0 mm 5 mps 771 mmHg 71%
    12:00 +12°C° 0 mm 5 mps 771 mmHg 69%
    13:00 +12°C° 0 mm 5 mps 771 mmHg 69%
    14:00 +12°C° 0 mm 5 mps 771 mmHg 69%
    15:00 +10°C° 0 mm 5 mps 770 mmHg 69%
    16:00 +10°C° 0 mm 4 mps 771 mmHg 72%
    17:00 +10°C° 0 mm 4 mps 771 mmHg 76%
    18:00 +9°C° 0 mm 3 mps 771 mmHg 79%
    19:00 +7°C° 0 mm 4 mps 771 mmHg 80%
    20:00 +5°C° 0 mm 4 mps 772 mmHg 80%
    21:00 +4°C° 0 mm 4 mps 773 mmHg 80%
    22:00 +3°C° 0 mm 4 mps 773 mmHg 84%
    23:00 +3°C° 0 mm 4 mps 773 mmHg 87%

    Tomorrow, 26 March, Tuesday

    Time Temperature Precipitation Wind Pressure Humidity
    00:00 +1°C° 0 mm 4 mps 774 mmHg 90%
    01:00 +2°C° 0 mm 3 mps 774 mmHg 91%
    02:00 +1°C° 0 mm 3 mps 773 mmHg 92%
    03:00 +1°C° 0 mm 3 mps 773 mmHg 94%
    04:00 0°C° 0 mm 3 mps 773 mmHg 94%
    05:00 0°C° 0 mm 3 mps 774 mmHg 94%
    06:00 0°C° 0 mm 3 mps 774 mmHg 94%
    07:00 +2°C° 0 mm 3 mps 774 mmHg 88%
    08:00 +4°C° 0 mm 4 mps 774 mmHg 81%
    09:00 +6°C° 0 mm 4 mps 774 mmHg 74%
    10:00 +7°C° 0 mm 4 mps 774 mmHg 71%
    11:00 +10°C° 0 mm 4 mps 774 mmHg 68%
    12:00 +11°C° 0 mm 4 mps 774 mmHg 65%
    13:00 +11°C° 0 mm 4 mps 773 mmHg 64%
    14:00 +12°C° 0 mm 5 mps 773 mmHg 63%
    15:00 +12°C° 0 mm 5 mps 772 mmHg 63%
    16:00 +11°C° 0 mm 4 mps 772 mmHg 68%
    17:00 +10°C° 0 mm 4 mps 772 mmHg 74%
    18:00 +9°C° 0 mm 3 mps 772 mmHg 80%
    19:00 +8°C° 0 mm 3 mps 772 mmHg 83%
    20:00 +7°C° 0 mm 3 mps 773 mmHg 87%
    21:00 +5°C° 0 mm 3 mps 773 mmHg 91%
    22:00 +4°C° 0 mm 3 mps 773 mmHg 92%
    23:00 +3°C° 0 mm 3 mps 773 mmHg 93%

    Day after tomorrow, 27 March, Wednesday

    Time Temperature Precipitation Wind Pressure Humidity
    00:00 +3°C° 0 mm 3 mps 774 mmHg 93%
    01:00 +2°C° 0 mm 3 mps 773 mmHg 94%
    02:00 +2°C° 0 mm 3 mps 773 mmHg 94%
    03:00 +2°C° 0 mm 3 mps 773 mmHg 94%
    04:00 +1°C° 0 mm 3 mps 773 mmHg 94%
    05:00 +1°C° 0 mm 3 mps 773 mmHg 95%
    06:00 +1°C° 0 mm 3 mps 773 mmHg 95%
    07:00 +3°C° 0 mm 3 mps 773 mmHg 89%
    08:00 +5°C° 0 mm 3 mps 774 mmHg 83%
    09:00 +7°C° 0 mm 4 mps 774 mmHg 78%
    10:00 +10°C° 0 mm 4 mps 774 mmHg 73%
    11:00 +11°C° 0 mm 4 mps 774 mmHg 69%
    12:00 +13°C° 0 mm 4 mps 774 mmHg 65%
    13:00 +13°C° 0 mm 4 mps 773 mmHg 65%
    14:00 +14°C° 0 mm 4 mps 773 mmHg 66%
    15:00 +14°C° 0 mm 5 mps 773 mmHg 66%
    16:00 +13°C° 0 mm 4 mps 773 mmHg 71%
    17:00 +12°C° 0 mm 4 mps 773 mmHg 76%
    18:00 +11°C° 0 mm 3 mps 773 mmHg 81%
    19:00 +10°C° 0 mm 3 mps 773 mmHg 82%
    20:00 +10°C° 0 mm 3 mps 774 mmHg 83%
    21:00 +9°C° 0 mm 3 mps 774 mmHg 84%
    22:00 +8°C° 0 mm 3 mps 774 mmHg 88%
    23:00 +7°C° 0 mm 3 mps 774 mmHg 91%

    28 March, Thursday

    Time Temperature Precipitation Wind Pressure Humidity
    00:00 +4°C° 0 mm 3 mps 774 mmHg 94%
    01:00 +4°C° 0 mm 3 mps 774 mmHg 95%
    02:00 +3°C° 0 mm 3 mps 774 mmHg 95%
    03:00 +3°C° 0 mm 3 mps 774 mmHg 96%
    04:00 +3°C° 0 mm 3 mps 774 mmHg 96%
    05:00 +3°C° 0 mm 3 mps 774 mmHg 96%
    06:00 +3°C° 0 mm 3 mps 774 mmHg 96%
    07:00 +5°C° 0 mm 3 mps 774 mmHg 92%
    08:00 +8°C° 0 mm 3 mps 774 mmHg 87%
    09:00 +10°C° 0 mm 4 mps 774 mmHg 82%
    10:00 +11°C° 0 mm 4 mps 774 mmHg 78%
    11:00 +13°C° 0 mm 4 mps 774 mmHg 74%
    12:00 +14°C° 0 mm 5 mps 774 mmHg 70%
    13:00 +14°C° 0 mm 5 mps 773 mmHg 70%
    14:00 +15°C° 0 mm 5 mps 773 mmHg 70%
    15:00 +15°C° 0 mm 5 mps 772 mmHg 70%
    16:00 +14°C° 0 mm 4 mps 772 mmHg 75%
    17:00 +13°C° 0 mm 4 mps 772 mmHg 79%
    18:00 +12°C° 0 mm 3 mps 772 mmHg 84%
    19:00 +11°C° 0 mm 3 mps 772 mmHg 87%
    20:00 +10°C° 0 mm 4 mps 773 mmHg 90%
    21:00 +8°C° 0 mm 4 mps 773 mmHg 93%
    22:00 +7°C° 0 mm 4 mps 773 mmHg 93%
    23:00 +8°C° 0 mm 3 mps 773 mmHg 94%

    29 March, Friday

    Time Temperature Precipitation Wind Pressure Humidity
    00:00 +7°C° 0 mm 3 mps 773 mmHg 94%
    01:00 +7°C° 0 mm 3 mps 772 mmHg 95%
    02:00 +7°C° 0 mm 3 mps 772 mmHg 95%
    03:00 +5°C° 0 mm 3 mps 772 mmHg 95%
    04:00 +5°C° 0 mm 3 mps 772 mmHg 96%
    05:00 +5°C° 0 mm 3 mps 772 mmHg 96%
    06:00 +5°C° 0 mm 3 mps 772 mmHg 96%
    07:00 +7°C° 0 mm 3 mps 772 mmHg 92%
    08:00 +8°C° 0 mm 4 mps 772 mmHg 88%
    09:00 +10°C° 0 mm 5 mps 772 mmHg 83%
    10:00 +12°C° 0 mm 5 mps 771 mmHg 79%
    11:00 +14°C° 0 mm 5 mps 771 mmHg 74%
    12:00 +15°C° 0 mm 5 mps 771 mmHg 70%
    13:00 +15°C° 0 mm 5 mps 770 mmHg 69%
    14:00 +17°C° 0 mm 4 mps 770 mmHg 68%
    15:00 +17°C° 0 mm 4 mps 769 mmHg 67%
    16:00 +15°C° 0 mm 4 mps 769 mmHg 71%
    17:00 +14°C° 0 mm 3 mps 769 mmHg 76%
    18:00 +14°C° 0 mm 2 mps 769 mmHg 81%
    19:00 +13°C° 0 mm 2 mps 769 mmHg 84%
    20:00 +10°C° 0 mm 3 mps 769 mmHg 87%
    21:00 +9°C° 0 mm 3 mps 769 mmHg 90%
    22:00 +8°C° 0 mm 3 mps 769 mmHg 90%
    23:00 +8°C° 0 mm 3 mps 769 mmHg 91%

    30 March, Saturday

    Time Temperature Precipitation Wind Pressure Humidity
    00:00 +7°C° 0 mm 3 mps 769 mmHg 91%
    01:00 +7°C° 0 mm 2 mps 769 mmHg 91%
    02:00 +7°C° 0 mm 2 mps 769 mmHg 92%
    03:00 +7°C° 0 mm 2 mps 768 mmHg 92%
    04:00 +7°C° 0 mm 2 mps 768 mmHg 92%
    05:00 +6°C° 0 mm 2 mps 768 mmHg 93%
    06:00 +6°C° 0 mm 2 mps 768 mmHg 93%
    07:00 +8°C° 0 mm 2 mps 768 mmHg 87%
    08:00 +10°C° 0 mm 2 mps 768 mmHg 81%
    09:00 +13°C° 0 mm 2 mps 768 mmHg 75%
    10:00 +15°C° 0 mm 2 mps 768 mmHg 70%
    11:00 +16°C° 0 mm 2 mps 768 mmHg 65%
    12:00 +18°C° 0 mm 2 mps 767 mmHg 60%
    13:00 +18°C° 0.1 mm 2 mps 767 mmHg 59%
    14:00 +19°C° 0.1 mm 2 mps 766 mmHg 58%
    15:00 +19°C° 0.1 mm 2 mps 766 mmHg 58%
    16:00 +19°C° 0.6 mm 1 mps 766 mmHg 64%
    17:00 +16°C° 0.6 mm 1 mps 766 mmHg 70%
    18:00 +15°C° 0.6 mm 1 mps 766 mmHg 76%
    19:00 +14°C° 0 mm 1 mps 766 mmHg 79%
    20:00 +13°C° 0 mm 2 mps 766 mmHg 83%
    21:00 +11°C° 0 mm 3 mps 767 mmHg 86%
    22:00 +12°C° 0 mm 2 mps 766 mmHg 87%
    23:00 +12°C° 0 mm 2 mps 766 mmHg 88%
    Show more